Messwerte Morogoro

Temperatur

Temperatur
°C
1594368000 11.00 11.00 26
1594371600 12.00 12.00
1594375200 13.00 13.00 27
1594378800 14.00 14.00
1594382400 15.00 15.00 28
1594386000 16.00 16.00 25
1594389600 17.00 17.00 21
1594393200 18.00 18.00 21
1594396800 19.00 19.00
1594400400 20.00 20.00 21
1594404000 21.00 21.00 22
1594407600 22.00 22.00 22
1594411200 23.00 23.00
1594414800 0.00 0.00 20
1594418400 1.00 1.00
1594422000 2.00 2.00
1594425600 3.00 3.00 20
1594429200 4.00 4.00
1594432800 5.00 5.00 19
1594436400 6.00 6.00 19
1594440000 7.00 7.00 19
1594443600 8.00 8.00 20
1594447200 9.00 9.00 20
1594450800 10.00 10.00 22

Aktuellste Messwerte

Wettercharakter
Wetter: freundlich
Temperatur
22 °C
Feuchtigkeit
85 %
Wind
0 km/h, -
Luftdruck
1021 hPa
Messzeit: 11. Juli 2020, 10.00Datenquelle: METAR

Weitere Messstationen in der Nähe

Messstation Temperatur Entfernung
Daressalam - 171 km
Sansibar 25 °C 186 km
Dodoma 19 °C 220 km
Iringa 24 °C 229 km
Mombasa - 380 km
Kilimanjaro Flughafen 19 °C 384 km
Arusha 16 °C 405 km

Wind

Windrichtung Böen Mittelwind
° km/h km/h
1594368000 11.00 10.00 - 11.00 0
1594371600 12.00 11.00 - 12.00
1594375200 13.00 12.00 - 13.00 0
1594378800 14.00 13.00 - 14.00
1594382400 15.00 14.00 - 15.00 0
1594386000 16.00 15.00 - 16.00 30° 40
1594389600 17.00 16.00 - 17.00 60° 20
1594393200 18.00 17.00 - 18.00 0
1594396800 19.00 18.00 - 19.00
1594400400 20.00 19.00 - 20.00 0
1594404000 21.00 20.00 - 21.00 90° 10
1594407600 22.00 21.00 - 22.00 90° 10
1594411200 23.00 22.00 - 23.00
1594414800 0.00 23.00 - 0.00 0
1594418400 1.00 0.00 - 1.00
1594422000 2.00 1.00 - 2.00
1594425600 3.00 2.00 - 3.00 0
1594429200 4.00 3.00 - 4.00
1594432800 5.00 4.00 - 5.00 0
1594436400 6.00 5.00 - 6.00 0
1594440000 7.00 6.00 - 7.00 0
1594443600 8.00 7.00 - 8.00 0
1594447200 9.00 8.00 - 9.00 0
1594450800 10.00 9.00 - 10.00 0

Ihre Wetterstation

Fehlt Ihre Wetterstation auf unserem Portal?

Schreiben Sie an network@meteonews.ch

Klima

Wann ist es am wärmsten? Wann regnet es am wenigsten? Unsere Klimadaten geben Auskunft.